Location: Lecco
(45.8566°N, 9.3977°E)
Time: 04:52:58
(UTC+02:00)

Transit 4A - Pass Details

Date: 14 August 2020
Orbit: 863 x 982 km, 66.8° (Epoch: 23 September)

Event Time Altitude Azimuth Distance (km) Brightness Sun altitude
Rises 15:15:06 0° 324° (NW) 3,621 10.9 51.0°
Reaches altitude 10° 15:19:22 10° 352° (N) 2,700 10.2 50.4°
Maximum altitude 15:22:09 13° 18° (NNE) 2,497 9.9 50.1°
Drops below altitude 10° 15:24:58 10° 45° (NE) 2,724 10.1 49.7°
Sets 15:29:18 0° 72° (ENE) 3,682 10.7 49.2°
